Simultaneous Nadir Overpasses (SNOs) Predictions

Prediction of SNOs between FY3D and METOP-C Satellite Orbit:

Table of predicted SNOs for the next 14.0 days since TLE Epoch: 1/4/2020
Index Date (FY3D) Time (FY3D) Lat,Lon (FY3D) SZA (FY3D ) Date (METOP-C) Time (METOP-C) Lat,Lon (METOP-C) SZA (METOP-C ) Distance(km) Time Diff (sec)
1 01/09/2020 04:37:22 73.59, 101.68 95.94 01/09/2020 04:38:29 73.52, 104.16 95.75 78.30 67
2 01/09/2020 05:28:04 -73.53, -90.87 84.13 01/09/2020 05:29:12 -73.46, -88.65 84.31 70.49 68
3 01/09/2020 06:18:45 73.28, 77.01 95.59 01/09/2020 06:19:56 73.21, 78.12 95.46 36.54 71
4 01/09/2020 07:09:27 -73.23,-115.55 84.48 01/09/2020 07:10:39 -73.15,-114.68 84.60 29.19 72
5 01/09/2020 08:00:08 72.98, 52.31 95.25 01/09/2020 08:01:21 72.99, 52.31 95.25 1.89 73
6 01/09/2020 08:50:51 -72.97,-140.36 84.76 01/09/2020 08:52:03 -72.99,-140.37 84.76 1.77 72
7 01/09/2020 09:41:37 72.97, 26.95 95.23 01/09/2020 09:42:42 72.98, 26.95 95.23 1.02 65
8 01/09/2020 10:32:20 -72.97,-165.72 84.78 01/09/2020 10:33:24 -72.97,-165.73 84.78 1.01 64
9 01/09/2020 11:23:06 72.97, 1.59 95.22 01/09/2020 11:24:03 72.97, 1.59 95.21 0.20 57
10 01/09/2020 12:13:49 -72.96, 168.92 84.80 01/09/2020 12:14:45 -72.96, 168.90 84.80 0.57 56
11 01/09/2020 13:04:35 72.96, -23.77 95.20 01/09/2020 13:05:24 72.95, -23.78 95.19 0.76 49
12 01/09/2020 13:55:18 -72.96, 143.56 84.81 01/09/2020 13:56:06 -72.95, 143.54 84.83 1.01 48
13 01/09/2020 14:46:04 72.95, -49.13 95.19 01/09/2020 14:46:45 72.94, -49.14 95.17 1.63 41
14 01/09/2020 15:36:47 -72.95, 118.20 84.83 01/09/2020 15:37:27 -72.94, 118.17 84.85 1.76 40
15 01/09/2020 16:27:32 72.95, -74.49 95.17 01/09/2020 16:28:05 72.93, -74.51 95.15 2.51 33
16 01/09/2020 17:18:15 -72.94, 92.84 84.84 01/09/2020 17:18:47 -72.92, 92.81 84.87 2.57 32
17 01/09/2020 18:09:01 72.94, -99.85 95.16 01/09/2020 18:09:26 72.91, -99.87 95.12 3.38 25
18 01/09/2020 18:59:44 -72.94, 67.48 84.86 01/09/2020 19:00:08 -72.91, 67.45 84.89 3.39 24
19 01/09/2020 19:50:30 72.94,-125.21 95.14 01/09/2020 19:50:46 72.95,-125.13 95.15 2.98 16
20 01/09/2020 20:41:13 -72.93, 42.12 84.87 01/09/2020 20:41:28 -72.95, 42.19 84.87 2.75 15
21 01/09/2020 21:31:59 72.93,-150.57 95.13 01/09/2020 21:32:07 72.94,-150.49 95.13 2.51 8
22 01/09/2020 22:22:42 -72.93, 16.76 84.89 01/09/2020 22:22:49 -72.93, 16.83 84.89 2.25 7
23 01/09/2020 23:13:28 72.93,-175.93 95.11 01/09/2020 23:13:28 72.92,-175.86 95.10 2.30 0
24 01/10/2020 00:04:11 -72.92, -8.60 84.91 01/10/2020 00:04:10 -72.92, -8.54 84.91 1.98 1
25 01/10/2020 00:54:57 72.92, 158.71 95.09 01/10/2020 00:54:49 72.91, 158.78 95.08 2.40 8
26 01/10/2020 01:45:40 -72.92, -33.96 84.92 01/10/2020 01:45:31 -72.91, -33.90 84.93 2.05 9
27 01/10/2020 02:36:26 72.92, 133.36 95.08 01/10/2020 02:36:10 72.90, 133.42 95.06 2.80 16
28 01/10/2020 03:27:09 -72.91, -59.32 84.94 01/10/2020 03:26:52 -72.90, -59.26 84.95 2.43 17
29 01/10/2020 04:17:54 72.86, 108.10 95.01 01/10/2020 04:17:31 72.88, 108.05 95.04 3.25 23
30 01/10/2020 05:08:38 -72.91, -84.67 84.95 01/10/2020 05:08:13 -72.88, -84.63 84.97 3.00 25
31 01/10/2020 05:59:23 72.85, 82.74 94.99 01/10/2020 05:58:52 72.87, 82.69 95.02 2.65 31
32 01/10/2020 06:50:06 -72.85,-109.93 85.02 01/10/2020 06:49:34 -72.87,-109.99 84.99 3.01 32
33 01/10/2020 07:40:52 72.85, 57.38 94.98 01/10/2020 07:40:13 72.86, 57.32 95.00 2.24 39
34 01/10/2020 08:31:35 -72.84,-135.29 85.04 01/10/2020 08:30:55 -72.86,-135.35 85.02 2.57 40
35 01/10/2020 09:22:21 72.84, 32.02 94.96 01/10/2020 09:21:34 72.84, 31.96 94.97 2.12 47
36 01/10/2020 10:13:04 -72.84,-160.65 85.06 01/10/2020 10:12:16 -72.84,-160.72 85.04 2.35 48
37 01/10/2020 11:03:50 72.84, 6.66 94.94 01/10/2020 11:02:55 72.83, 6.60 94.95 2.36 55
38 01/10/2020 11:54:33 -72.83, 173.99 85.07 01/10/2020 11:53:37 -72.83, 173.92 85.06 2.41 56
39 01/10/2020 12:45:19 72.83, -18.69 94.93 01/10/2020 12:44:16 72.82, -18.77 94.93 2.85 63
40 01/10/2020 13:36:02 -72.83, 148.63 85.09 01/10/2020 13:34:58 -72.82, 148.56 85.08 2.74 64
41 01/10/2020 14:26:48 72.83, -44.05 94.91 01/10/2020 14:25:36 72.86, -44.03 94.95 3.38 72
42 01/10/2020 15:17:31 -72.82, 123.27 85.10 01/10/2020 15:16:19 -72.81, 123.19 85.10 3.26 72
43 01/10/2020 16:08:13 72.62, -68.99 94.68 01/10/2020 16:07:01 72.64, -69.81 94.75 27.24 72
44 01/10/2020 16:58:56 -72.61, 98.33 85.34 01/10/2020 16:57:43 -72.64, 97.52 85.26 27.26 73
45 01/10/2020 17:49:37 72.36, -93.84 94.39 01/10/2020 17:48:28 72.32, -95.79 94.45 65.86 69
46 01/10/2020 18:40:19 -72.30, 73.58 85.68 01/10/2020 18:39:10 -72.32, 71.54 85.56 69.00 69




NCC Satellite Simultaneous Nadir Overpasses (SNOs) Prediction Service
